M0OAB-1 Weather Reports


Display with metric or nautical units.
time (UTC)temp
F
wind
direction
speed
MPH
gust
MPH
rain 1hr
in
rain 24hr
in
rain mn
in
humidity
%
barometer
mb
20260507051605 47 79 0.0 2.0 0.00 0.00 0.00 80 1001.2
20260507051404 47 83 0.0 3.0 0.00 0.00 0.00 80 1001.3
20260507051204 47 64 1.0 3.0 0.00 0.00 0.00 80 1001.1
20260507051005 47 69 1.0 3.0 0.00 0.00 0.00 80 1001.2
20260507050805 47 66 1.0 3.0 0.00 0.00 0.00 80 1001.2
20260507050604 47 61 1.0 3.0 0.00 0.00 0.00 80 1001.3
20260507050405 47 55 1.0 3.0 0.00 0.00 0.00 80 1001.2
20260507050204 47 60 1.0 2.0 0.00 0.00 0.00 80 1001.2
20260507050006 47 42 0.0 2.0 0.00 0.00 0.00 80 1001.3
20260507045805 47 35 0.0 2.0 0.00 0.00 0.00 80 1001.2
20260507045605 47 42 1.0 2.0 0.00 0.00 0.00 80 1001.1
20260507045404 47 34 1.0 2.0 0.00 0.00 0.00 80 1001.1
20260507045005 47 20 1.0 2.0 0.00 0.00 0.00 80 1001.2
20260507044805 47 30 1.0 2.0 0.00 0.00 0.00 80 1001.2
20260507044605 47 12 1.0 2.0 0.00 0.00 0.00 80 1001.1
20260507044204 47 14 1.0 2.0 0.00 0.00 0.00 80 1001.2
20260507043804 47 326 0.0 1.0 0.00 0.00 0.00 80 1001.2
20260507043605 47 66 0.0 1.0 0.00 0.00 0.00 80 1001.1
20260507043405 47 43 0.0 1.0 0.00 0.00 0.00 80 1001.1
20260507043205 47 49 0.0 1.0 0.00 0.00 0.00 80 1001.3
20260507043004 47 49 0.0 1.0 0.00 0.00 0.00 80 1001.0
20260507042805 47 46 0.0 1.0 0.00 0.00 0.00 80 1001.2
20260507042605 47 20 0.0 1.0 0.00 0.00 0.00 80 1001.0
20260507042404 47 23 0.0 1.0 0.00 0.00 0.00 80 1001.1
20260507042204 47 37 0.0 1.0 0.00 0.00 0.00 80 1001.1
20260507042005 47 62 0.0 1.0 0.00 0.00 0.00 80 1001.2
20260507041805 47 72 0.0 2.0 0.00 0.00 0.00 80 1001.2
20260507041405 47 61 0.0 2.0 0.00 0.00 0.00 80 1001.1
20260507041005 47 54 0.0 2.0 0.00 0.00 0.00 80 1001.0
20260507040405 47 25 0.0 1.0 0.00 0.00 0.00 80 1001.0
20260507040205 47 25 0.0 1.0 0.00 0.00 0.00 80 1001.0
20260507035805 47 58 0.0 1.0 0.00 0.00 0.00 79 1001.1
20260507035604 47 19 0.0 2.0 0.00 0.00 0.00 79 1001.0
20260507035405 47 14 0.0 2.0 0.00 0.00 0.00 79 1001.0
20260507035205 47 29 1.0 2.0 0.00 0.00 0.00 79 1001.2
20260507035004 47 29 1.0 2.0 0.00 0.00 0.00 79 1001.0
20260507034804 47 29 1.0 2.0 0.00 0.00 0.00 79 1001.0
20260507034605 47 26 1.0 2.0 0.00 0.00 0.00 79 1000.9
20260507034405 47 32 0.0 2.0 0.00 0.00 0.00 79 1000.9
20260507034205 47 7 0.0 1.0 0.00 0.00 0.00 79 1001.0
20260507034004 47 11 0.0 1.0 0.00 0.00 0.00 79 1001.0
20260507033804 48 15 0.0 1.0 0.00 0.00 0.00 79 1000.9
20260507033604 48 44 0.0 2.0 0.00 0.00 0.00 79 1000.9
20260507033405 48 47 0.0 2.0 0.00 0.00 0.00 79 1001.0
20260507033205 48 60 0.0 2.0 0.00 0.00 0.00 79 1000.9
20260507033004 48 63 0.0 2.0 0.00 0.00 0.00 79 1001.0
20260507032805 48 59 0.0 2.0 0.00 0.00 0.00 79 1001.0
20260507032605 48 97 0.0 2.0 0.00 0.00 0.00 79 1001.0
20260507032404 48 100 0.0 2.0 0.00 0.00 0.00 79 1000.9
20260507032205 48 100 0.0 2.0 0.00 0.00 0.00 79 1000.9
20260507032004 48 100 0.0 2.0 0.00 0.00 0.00 79 1000.8
20260507031804 48 173 0.0 2.0 0.00 0.00 0.00 79 1000.9
20260507031604 48 0 0.0 0.0 0.00 0.00 0.00 79 1000.9
20260507031404 48 162 0.0 1.0 0.00 0.00 0.00 79 1001.0
20260507031205 48 112 0.0 1.0 0.00 0.00 0.00 78 1001.0
20260507031005 48 112 0.0 1.0 0.00 0.00 0.00 78 1000.9
20260507030805 48 112 0.0 1.0 0.00 0.00 0.00 78 1000.9
20260507030604 48 112 0.0 1.0 0.00 0.00 0.00 78 1001.0
20260507030204 48 270 0.0 1.0 0.00 0.00 0.00 78 1000.9
20260507025805 48 333 0.0 1.0 0.00 0.00 0.00 78 1000.9
20260507025404 48 15 0.0 1.0 0.00 0.00 0.00 78 1001.1
20260507025205 48 9 0.0 1.0 0.00 0.00 0.00 78 1001.1
20260507025005 48 12 0.0 1.0 0.00 0.00 0.00 78 1000.9
20260507024804 48 20 0.0 1.0 0.00 0.00 0.00 79 1001.0
20260507024604 48 20 0.0 1.0 0.00 0.00 0.00 79 1001.0
20260507024404 48 1 0.0 1.0 0.00 0.00 0.00 79 1000.9
20260507024205 48 0 0.0 0.0 0.00 0.00 0.00 79 1001.0
20260507024005 48 0 0.0 0.0 0.00 0.00 0.00 79 1001.1
20260507023605 48 25 0.0 2.0 0.00 0.00 0.00 79 1001.0
20260507023404 48 45 1.0 2.0 0.00 0.00 0.00 79 1001.0
20260507023005 48 352 1.0 2.0 0.00 0.00 0.00 79 1001.0
20260507022805 48 349 1.0 2.0 0.00 0.00 0.00 79 1001.1
20260507022604 48 2 2.0 2.0 0.00 0.00 0.00 79 1001.0
20260507022404 48 349 2.0 2.0 0.00 0.00 0.00 79 1001.0
20260507022204 48 42 1.0 2.0 0.00 0.00 0.00 79 1001.0
20260507022005 48 100 1.0 2.0 0.00 0.00 0.00 79 1001.0
20260507021604 48 63 0.0 2.0 0.00 0.00 0.00 79 1000.9
20260507021404 48 81 0.0 2.0 0.00 0.00 0.00 79 1000.9
20260507021204 48 99 0.0 2.0 0.00 0.00 0.00 79 1000.9
20260507021004 48 93 0.0 2.0 0.00 0.00 0.00 79 1000.7
20260507020805 48 93 0.0 2.0 0.00 0.00 0.00 79 1001.0
20260507020404 48 66 0.0 1.0 0.00 0.00 0.00 80 1000.8
20260507020204 48 58 0.0 1.0 0.00 0.00 0.00 80 1000.8
20260507020004 48 68 0.0 1.0 0.00 0.00 0.00 80 1000.9
20260507015805 48 68 0.0 1.0 0.00 0.00 0.00 80 1000.9
20260507015605 48 90 0.0 1.0 0.00 0.00 0.00 80 1000.9
20260507015404 48 90 0.0 1.0 0.00 0.00 0.00 80 1001.0
20260507015204 48 0 0.0 0.0 0.00 0.00 0.00 80 1001.0
20260507015004 48 0 0.0 0.0 0.00 0.00 0.00 80 1001.0
20260507014805 48 0 0.0 0.0 0.00 0.00 0.00 80 1000.9
20260507014605 48 0 0.0 0.0 0.00 0.00 0.00 80 1001.0
20260507014404 48 0 0.0 0.0 0.00 0.00 0.00 80 1001.0
20260507014004 48 0 0.0 0.0 0.00 0.00 0.00 80 1000.9
20260507013805 48 0 0.0 0.0 0.00 0.00 0.00 80 1001.0
20260507013605 48 0 0.0 0.0 0.00 0.00 0.00 80 1000.9
20260507013404 48 0 0.0 0.0 0.00 0.00 0.00 80 1001.0
20260507013205 48 0 0.0 0.0 0.00 0.00 0.00 80 1001.0
20260507013005 48 0 0.0 0.0 0.00 0.00 0.00 79 1001.0
20260507012804 48 0 0.0 0.0 0.00 0.00 0.00 79 1000.9
20260507012604 48 0 0.0 0.0 0.00 0.00 0.00 79 1000.8
20260507012405 48 0 0.0 0.0 0.00 0.00 0.00 79 1000.9
20260507012205 48 29 0.0 2.0 0.00 0.00 0.00 79 1000.8
20260507012005 48 29 0.0 2.0 0.00 0.00 0.00 79 1000.9
20260507011804 48 29 0.0 2.0 0.00 0.00 0.00 79 1000.9
20260507011604 48 29 0.0 2.0 0.00 0.00 0.00 79 1000.8
20260507011204 48 0 0.0 0.0 0.00 0.00 0.00 79 1000.8
20260507011004 48 0 0.0 0.0 0.00 0.00 0.00 79 1000.9
20260507010805 48 0 0.0 0.0 0.00 0.00 0.00 79 1000.9
20260507010605 49 0 0.0 0.0 0.00 0.00 0.00 79 1000.8
20260507010404 49 0 0.0 0.0 0.00 0.00 0.00 80 1000.8
20260507010004 49 0 0.0 0.0 0.00 0.00 0.00 80 1000.8
20260507005805 49 26 0.0 2.0 0.00 0.00 0.00 80 1000.8
20260507005605 49 15 0.0 2.0 0.00 0.00 0.00 80 1000.8
20260507005405 49 13 0.0 2.0 0.00 0.00 0.00 80 1000.8
20260507005004 49 35 1.0 2.0 0.00 0.00 0.00 80 1000.8
20260507004804 49 182 0.0 2.0 0.00 0.00 0.00 80 1000.8
20260507004605 49 170 0.0 2.0 0.00 0.00 0.00 80 1000.9
20260507004404 49 167 0.0 2.0 0.00 0.00 0.00 80 1000.8
20260507004204 49 181 0.0 2.0 0.00 0.00 0.00 80 1000.8
20260507004005 49 181 0.0 2.0 0.00 0.00 0.00 80 1000.9
20260507003804 49 45 0.0 1.0 0.00 0.00 0.00 80 1000.9
20260507003604 49 337 0.0 1.0 0.00 0.00 0.00 80 1001.1
20260507003405 49 120 0.0 2.0 0.00 0.00 0.00 80 1000.9
20260507003205 49 118 0.0 2.0 0.00 0.00 0.00 81 1001.0
20260507002804 49 126 1.0 2.0 0.00 0.00 0.00 81 1000.8
20260507002604 49 118 0.0 2.0 0.00 0.00 0.00 81 1001.1
20260507002404 49 75 0.0 1.0 0.00 0.00 0.00 81 1000.9
20260507002205 49 68 0.0 1.0 0.00 0.00 0.00 81 1000.9
20260507002004 49 1 0.0 1.0 0.00 0.00 0.00 81 1001.1
20260507001804 49 76 0.0 1.0 0.00 0.00 0.00 81 1000.9
20260507001604 49 68 0.0 1.0 0.00 0.00 0.00 81 1000.9
20260507001405 49 43 0.0 1.0 0.00 0.00 0.00 81 1000.9
20260507001204 49 42 0.0 1.0 0.00 0.00 0.00 81 1001.1
20260507000605 49 262 0.0 1.0 0.00 0.00 0.00 81 1001.0
20260507000205 49 270 0.0 1.0 0.00 0.00 0.00 82 1001.1
20260506235604 49 7 1.0 2.0 0.00 0.00 0.00 82 1001.1
20260506235405 49 7 1.0 2.0 0.00 0.00 0.00 82 1001.0
20260506235204 49 358 1.0 2.0 0.00 0.00 0.00 82 1000.9
20260506235004 49 337 0.0 2.0 0.00 0.00 0.00 82 1001.0
20260506234804 49 341 0.0 2.0 0.00 0.00 0.00 82 1001.0
20260506234605 49 337 0.0 2.0 0.00 0.00 0.00 82 1001.0
20260506234405 49 337 0.0 2.0 0.00 0.00 0.00 82 1001.0
20260506233605 49 344 1.0 2.0 0.00 0.00 0.00 82 1001.1
20260506233405 49 335 1.0 2.0 0.00 0.00 0.00 82 1001.0
20260506233205 49 330 1.0 2.0 0.00 0.00 0.00 82 1001.0
20260506233004 49 321 1.0 2.0 0.00 0.00 0.00 82 1001.1
20260506232804 49 325 2.0 2.0 0.00 0.00 0.00 82 1001.1
20260506232404 49 323 1.0 2.0 0.00 0.00 0.00 82 1001.1
20260506232005 49 345 0.0 2.0 0.00 0.00 0.00 82 1001.1
20260506231804 49 1 0.0 2.0 0.00 0.00 0.00 82 1001.1
20260506231404 49 327 1.0 2.0 0.00 0.00 0.00 82 1001.0
20260506231204 49 325 1.0 2.0 0.00 0.00 0.00 82 1001.1
20260506231004 49 319 2.0 2.0 0.00 0.00 0.00 82 1001.1
20260506230604 49 315 1.0 2.0 0.00 0.00 0.00 82 1001.2
20260506230404 49 317 1.0 2.0 0.00 0.00 0.00 82 1001.2
20260506225805 49 331 1.0 2.0 0.00 0.00 0.00 82 1001.2
20260506225604 49 340 2.0 3.0 0.00 0.00 0.00 82 1001.2
20260506225404 49 342 2.0 3.0 0.00 0.00 0.00 82 1001.3
20260506225205 49 343 3.0 3.0 0.00 0.00 0.00 82 1001.1
20260506225004 49 342 3.0 3.0 0.00 0.00 0.00 82 1001.1
20260506224804 49 345 3.0 3.0 0.00 0.00 0.00 82 1001.2
20260506224604 49 346 3.0 3.0 0.00 0.00 0.00 82 1001.2
20260506224405 49 346 2.0 3.0 0.00 0.00 0.00 82 1001.1
20260506223604 49 338 3.0 4.0 0.00 0.00 0.00 82 1001.1
20260506223405 49 336 3.0 4.0 0.00 0.00 0.00 81 1001.1
20260506223205 49 331 3.0 4.0 0.00 0.00 0.00 81 1001.0
20260506222405 49 337 2.0 3.0 0.00 0.00 0.00 81 1001.2
20260506222204 49 339 2.0 3.0 0.00 0.00 0.00 81 1001.1
20260506221604 49 339 1.0 2.0 0.00 0.00 0.00 81 1001.1
20260506221404 49 345 2.0 2.0 0.00 0.00 0.00 81 1001.1
20260506221205 49 343 2.0 2.0 0.00 0.00 0.00 81 1001.1
20260506221005 49 347 2.0 3.0 0.00 0.00 0.00 81 1001.0
20260506220804 49 351 2.0 4.0 0.00 0.00 0.00 81 1001.0
20260506220605 49 349 3.0 5.0 0.00 0.00 0.00 81 1001.0
20260506220405 49 351 3.0 5.0 0.00 0.00 0.00 81 1001.0
20260506220004 49 345 3.0 5.0 0.00 0.00 0.00 81 1000.9
20260506215804 49 348 4.0 5.0 0.00 0.00 0.00 81 1001.1
20260506215605 49 348 4.0 5.0 0.00 0.00 0.00 81 1000.9
20260506215405 49 341 4.0 5.0 0.00 0.00 0.00 81 1000.8
20260506215204 49 334 4.0 6.0 0.00 0.00 0.00 81 1000.8
20260506215005 49 338 4.0 6.0 0.00 0.00 0.00 81 1000.8
20260506214804 49 336 4.0 6.0 0.00 0.00 0.00 80 1000.5
20260506214605 49 329 4.0 6.0 0.00 0.00 0.00 80 1000.7
20260506214204 49 338 3.0 6.0 0.00 0.00 0.00 80 1000.7
20260506214004 49 330 2.0 3.0 0.00 0.00 0.00 80 1000.6
20260506213805 49 330 2.0 3.0 0.00 0.00 0.00 80 1000.7
20260506213604 49 340 3.0 4.0 0.00 0.00 0.00 80 1000.6
20260506213404 49 343 3.0 4.0 0.00 0.00 0.00 80 1000.6
20260506213006 49 353 4.0 5.0 0.00 0.00 0.00 80 1000.6
20260506212804 49 350 4.0 6.0 0.00 0.00 0.00 80 1000.6
20260506212604 49 342 4.0 6.0 0.00 0.00 0.00 80 1000.7
20260506212205 49 337 4.0 6.0 0.00 0.00 0.00 80 1000.7
20260506212005 49 327 4.0 6.0 0.00 0.00 0.00 80 1000.7
20260506211605 49 330 3.0 4.0 0.00 0.00 0.00 80 1000.5
20260506211404 49 330 4.0 5.0 0.00 0.00 0.00 80 1000.6
20260506211204 49 329 4.0 5.0 0.00 0.00 0.00 80 1000.5
20260506211005 49 338 4.0 6.0 0.00 0.00 0.00 80 1000.6
20260506210804 49 345 5.0 6.0 0.00 0.00 0.00 80 1000.6
20260506210404 49 344 5.0 7.0 0.00 0.00 0.00 80 1000.5
20260506210005 49 342 5.0 7.0 0.00 0.00 0.00 80 1000.5
20260506205804 49 340 5.0 7.0 0.00 0.00 0.00 80 1000.6
20260506205605 49 340 4.0 7.0 0.00 0.00 0.00 79 1000.5
20260506205405 49 335 4.0 5.0 0.00 0.00 0.00 79 1000.3
20260506205204 49 339 4.0 5.0 0.00 0.00 0.00 79 1000.4
20260506205005 50 338 4.0 5.0 0.00 0.00 0.00 79 1000.4
20260506204805 50 340 4.0 4.0 0.00 0.00 0.00 79 1000.4
20260506204604 50 348 4.0 4.0 0.00 0.00 0.00 78 1000.5
20260506204404 50 353 4.0 4.0 0.00 0.00 0.00 78 1000.5
20260506204205 50 350 3.0 4.0 0.00 0.00 0.00 78 1000.4
20260506204004 50 350 4.0 6.0 0.00 0.00 0.00 78 1000.4
20260506203804 50 342 4.0 6.0 0.00 0.00 0.00 78 1000.3
20260506203605 50 343 5.0 8.0 0.00 0.00 0.00 77 1000.4
20260506203404 50 343 5.0 8.0 0.00 0.00 0.00 77 1000.4
20260506203205 50 344 5.0 8.0 0.00 0.00 0.00 77 1000.3
20260506203005 50 344 5.0 8.0 0.00 0.00 0.00 77 1000.2
20260506202804 50 342 5.0 8.0 0.00 0.00 0.00 76 1000.2
20260506202605 50 340 4.0 6.0 0.00 0.00 0.00 76 1000.3
20260506202404 50 344 4.0 6.0 0.00 0.00 0.00 76 1000.4
20260506202204 50 351 4.0 4.0 0.00 0.00 0.00 75 1000.3
20260506202005 50 352 4.0 4.0 0.00 0.00 0.00 75 1000.2
20260506201804 50 359 4.0 4.0 0.00 0.00 0.00 75 1000.4
20260506201604 50 357 4.0 7.0 0.00 0.00 0.00 75 1000.3
20260506201405 50 352 4.0 7.0 0.00 0.00 0.00 75 1000.2
20260506201204 50 344 4.0 7.0 0.00 0.00 0.00 74 1000.3
20260506201005 50 348 4.0 7.0 0.00 0.00 0.00 74 1000.2
20260506200605 50 343 5.0 8.0 0.00 0.00 0.00 74 1000.2
20260506200404 50 348 6.0 8.0 0.00 0.00 0.00 74 1000.2
20260506200005 51 348 6.0 8.0 0.00 0.00 0.00 74 1000.2
20260506195804 51 347 6.0 8.0 0.00 0.00 0.00 74 1000.2
20260506195604 51 344 6.0 8.0 0.00 0.00 0.00 73 1000.1
20260506195405 51 341 7.0 8.0 0.00 0.00 0.00 73 1000.3
20260506195204 51 337 7.0 8.0 0.00 0.00 0.00 73 1000.1
20260506195004 51 337 7.0 11.0 0.00 0.00 0.00 73 1000.1
20260506194805 51 341 7.0 11.0 0.00 0.00 0.00 72 1000.1
20260506194604 51 348 7.0 11.0 0.00 0.00 0.00 72 1000.0
20260506194404 51 350 7.0 11.0 0.00 0.00 0.00 72 1000.0
20260506194205 51 353 7.0 11.0 0.00 0.00 0.00 71 1000.1
20260506194005 51 347 6.0 11.0 0.00 0.00 0.00 71 1000.1
20260506193804 51 346 6.0 8.0 0.00 0.00 0.00 71 999.9
20260506193604 51 347 6.0 10.0 0.00 0.00 0.00 71 999.9
20260506193206 51 343 7.0 10.0 0.00 0.00 0.00 70 1000.0
20260506193004 51 342 7.0 10.0 0.00 0.00 0.00 70 1000.0
20260506192804 51 340 6.0 10.0 0.00 0.00 0.00 70 999.9
20260506192605 52 334 6.0 8.0 0.00 0.00 0.00 70 999.9
20260506192404 52 336 6.0 8.0 0.00 0.00 0.00 70 999.9
20260506192005 52 340 5.0 7.0 0.00 0.00 0.00 69 999.9
20260506191805 52 341 5.0 7.0 0.00 0.00 0.00 69 999.9
20260506191604 52 335 5.0 8.0 0.00 0.00 0.00 69 999.8
20260506191404 52 331 6.0 8.0 0.00 0.00 0.00 68 999.8
20260506191205 52 329 6.0 8.0 0.00 0.00 0.00 68 999.8
20260506191004 52 329 6.0 8.0 0.00 0.00 0.00 68 999.7
20260506190604 52 325 6.0 8.0 0.00 0.00 0.00 67 999.7
20260506190205 52 334 5.0 6.0 0.00 0.00 0.00 66 999.8
20260506185804 52 351 5.0 6.0 0.00 0.00 0.00 65 999.6
20260506185605 53 352 5.0 6.0 0.00 0.00 0.00 65 999.7
20260506185404 53 351 5.0 6.0 0.00 0.00 0.00 65 999.6
20260506185204 53 342 4.0 6.0 0.00 0.00 0.00 64 999.6
20260506184605 53 336 5.0 7.0 0.00 0.00 0.00 63 999.6
20260506184404 53 339 5.0 9.0 0.00 0.00 0.00 63 999.6
20260506184204 53 340 6.0 9.0 0.00 0.00 0.00 63 999.5
20260506184005 53 336 6.0 9.0 0.00 0.00 0.00 63 999.6
20260506183804 53 330 7.0 9.0 0.00 0.00 0.00 63 999.4
20260506183604 53 333 7.0 9.0 0.00 0.00 0.00 63 999.4
20260506183404 53 335 6.0 9.0 0.00 0.00 0.00 63 999.5
20260506182804 54 349 6.0 8.0 0.00 0.00 0.00 62 999.3
20260506182604 54 350 6.0 8.0 0.00 0.00 0.00 62 999.4
20260506182404 54 347 6.0 8.0 0.00 0.00 0.00 61 999.3
20260506182204 54 347 6.0 8.0 0.00 0.00 0.00 61 999.3
20260506181606 54 351 5.0 8.0 0.00 0.00 0.00 61 999.2
20260506181404 54 348 6.0 8.0 0.00 0.00 0.00 61 999.3
20260506181204 54 339 6.0 8.0 0.00 0.00 0.00 61 999.3
20260506181004 54 335 6.0 8.0 0.00 0.00 0.00 61 999.2
20260506180804 54 327 6.0 8.0 0.00 0.00 0.00 60 999.3
20260506180404 54 318 5.0 7.0 0.00 0.00 0.00 58 999.1
20260506180205 54 323 5.0 7.0 0.00 0.00 0.00 58 999.0
20260506180005 54 318 5.0 7.0 0.00 0.00 0.00 58 999.0
20260506175804 54 319 5.0 7.0 0.00 0.00 0.00 58 999.0
20260506175605 55 317 6.0 11.0 0.00 0.00 0.00 59 998.9
20260506175404 55 322 6.0 11.0 0.00 0.00 0.00 59 998.8
20260506175204 55 317 7.0 11.0 0.00 0.00 0.00 58 998.9
20260506175004 54 329 7.0 11.0 0.00 0.00 0.00 58 998.8
20260506174804 55 325 8.0 11.0 0.00 0.00 0.00 57 998.6
20260506174604 55 329 8.0 11.0 0.00 0.00 0.00 57 998.7
20260506174205 55 328 7.0 11.0 0.00 0.00 0.00 56 998.6
20260506174004 55 323 7.0 11.0 0.00 0.00 0.00 56 998.5
20260506173804 55 340 6.0 9.0 0.00 0.00 0.00 56 998.8
20260506173404 55 346 6.0 7.0 0.00 0.00 0.00 57 998.8
20260506173004 55 339 6.0 8.0 0.00 0.00 0.00 56 998.7
20260506172804 55 344 6.0 9.0 0.00 0.00 0.00 56 998.6
20260506172604 55 347 7.0 10.0 0.00 0.00 0.00 56 998.8
20260506172404 55 338 7.0 10.0 0.00 0.00 0.00 56 998.7
20260506172004 54 345 8.0 10.0 0.00 0.00 0.00 55 998.7
20260506171805 55 345 8.0 10.0 0.00 0.00 0.00 54 998.5
20260506171604 55 343 7.0 12.0 0.00 0.00 0.00 55 998.7
20260506171404 55 342 7.0 12.0 0.00 0.00 0.00 55 998.6
20260506171205 55 336 7.0 12.0 0.00 0.00 0.00 55 998.7
20260506171004 55 335 7.0 12.0 0.00 0.00 0.00 55 998.6
20260506170804 55 335 8.0 12.0 0.00 0.00 0.00 55 998.7
20260506170404 55 330 7.0 11.0 0.00 0.00 0.00 55 998.6
20260506170204 55 332 8.0 11.0 0.00 0.00 0.00 55 998.6
20260506170005 55 333 7.0 11.0 0.00 0.00 0.00 55 998.5
20260506165804 55 326 6.0 9.0 0.00 0.00 0.00 55 998.6
20260506165604 55 327 5.0 9.0 0.00 0.00 0.00 55 998.6
20260506165405 55 326 5.0 9.0 0.00 0.00 0.00 55 998.6
20260506165204 55 328 5.0 9.0 0.00 0.00 0.00 55 998.7
20260506165005 55 334 6.0 9.0 0.00 0.00 0.00 55 998.6
20260506164804 55 333 6.0 9.0 0.00 0.00 0.00 55 998.6
20260506164204 55 338 5.0 9.0 0.00 0.00 0.00 55 998.6
20260506164005 55 331 5.0 8.0 0.00 0.00 0.00 55 998.6
20260506163804 55 333 5.0 8.0 0.00 0.00 0.00 55 998.7
20260506163604 55 340 6.0 8.0 0.00 0.00 0.00 54 998.6
20260506163404 55 340 5.0 8.0 0.00 0.00 0.00 54 998.7
20260506163204 55 344 5.0 8.0 0.00 0.00 0.00 54 998.7
20260506163004 55 349 4.0 7.0 0.00 0.00 0.00 54 998.7
20260506162804 55 7 4.0 7.0 0.00 0.00 0.00 55 998.7
20260506162605 55 351 3.0 7.0 0.00 0.00 0.00 55 998.8
20260506162204 55 336 4.0 5.0 0.00 0.00 0.00 55 998.6
20260506162005 55 327 4.0 7.0 0.00 0.00 0.00 55 998.7
20260506161804 55 327 5.0 8.0 0.00 0.00 0.00 55 998.7
20260506161604 55 325 6.0 8.0 0.00 0.00 0.00 55 998.7
20260506161404 55 320 6.0 8.0 0.00 0.00 0.00 54 998.5
20260506161204 55 329 7.0 8.0 0.00 0.00 0.00 54 998.7
20260506161004 55 330 7.0 8.0 0.00 0.00 0.00 54 998.7
20260506160804 55 327 6.0 8.0 0.00 0.00 0.00 54 998.7
20260506160605 55 331 7.0 9.0 0.00 0.00 0.00 53 998.6
20260506160404 55 334 6.0 9.0 0.00 0.00 0.00 53 998.7
20260506160204 55 330 6.0 9.0 0.00 0.00 0.00 53 998.7
20260506155804 55 337 5.0 9.0 0.00 0.00 0.00 53 998.7
20260506155604 55 4 4.0 8.0 0.00 0.00 0.00 53 998.6
20260506155404 55 325 4.0 9.0 0.00 0.00 0.00 53 998.7
20260506155204 55 328 5.0 9.0 0.00 0.00 0.00 54 998.8
20260506154804 55 336 5.0 9.0 0.00 0.00 0.00 53 998.6
20260506154604 55 321 5.0 9.0 0.00 0.00 0.00 53 998.6
20260506154404 55 358 4.0 8.0 0.00 0.00 0.00 54 998.7
20260506154204 55 354 4.0 5.0 0.00 0.00 0.00 54 998.7
20260506153804 55 346 4.0 8.0 0.00 0.00 0.00 53 998.7
20260506153204 55 348 4.0 8.0 0.00 0.00 0.00 52 998.8
20260506153004 55 340 4.0 8.0 0.00 0.00 0.00 51 998.9
20260506152604 55 327 4.0 8.0 0.00 0.00 0.00 51 998.9
20260506152404 55 335 4.0 8.0 0.00 0.00 0.00 50 998.8
20260506152204 55 337 4.0 8.0 0.00 0.00 0.00 50 998.8
20260506152005 56 353 4.0 8.0 0.00 0.00 0.00 50 998.8
20260506151804 56 353 4.0 8.0 0.00 0.00 0.00 50 998.8
20260506151604 56 346 4.0 8.0 0.00 0.00 0.00 51 998.7
20260506151404 56 333 4.0 7.0 0.00 0.00 0.00 51 998.6
20260506151204 56 345 5.0 7.0 0.00 0.00 0.00 50 998.8
20260506151004 56 334 6.0 9.0 0.00 0.00 0.00 50 998.7
20260506150804 56 334 6.0 9.0 0.00 0.00 0.00 50 998.9
20260506150604 56 337 6.0 9.0 0.00 0.00 0.00 50 998.6
20260506150404 56 337 6.0 9.0 0.00 0.00 0.00 50 998.8
20260506150204 56 319 5.0 9.0 0.00 0.00 0.00 50 998.7
20260506150005 56 314 4.0 7.0 0.00 0.00 0.00 51 998.7
20260506145204 56 333 5.0 8.0 0.00 0.00 0.00 52 998.7
20260506144804 56 335 7.0 9.0 0.00 0.00 0.00 51 998.7
20260506144604 56 338 7.0 9.0 0.00 0.00 0.00 51 998.7
20260506144404 56 344 8.0 9.0 0.00 0.00 0.00 50 998.7
20260506144204 57 343 7.0 9.0 0.00 0.00 0.00 50 998.7
20260506144004 57 331 7.0 9.0 0.00 0.00 0.00 50 998.7
20260506143804 57 333 6.0 9.0 0.00 0.00 0.00 51 998.8
20260506143604 57 330 6.0 9.0 0.00 0.00 0.00 52 998.6
20260506143404 57 320 6.0 9.0 0.00 0.00 0.00 52 998.7
20260506143204 57 324 7.0 9.0 0.00 0.00 0.00 51 998.6
20260506142804 57 324 7.0 9.0 0.00 0.00 0.00 51 998.6
20260506142604 57 318 7.0 9.0 0.00 0.00 0.00 51 998.6
20260506142404 57 321 7.0 9.0 0.00 0.00 0.00 52 998.7
20260506141804 57 354 7.0 10.0 0.00 0.00 0.00 52 998.6
20260506141404 57 350 7.0 10.0 0.00 0.00 0.00 53 998.5
20260506141204 57 345 7.0 10.0 0.00 0.00 0.00 54 998.6
20260506141004 56 340 6.0 8.0 0.00 0.00 0.00 54 998.5
20260506140604 56 344 6.0 10.0 0.00 0.00 0.00 54 998.6
20260506140204 56 343 6.0 10.0 0.00 0.00 0.00 55 998.7
20260506140005 56 347 7.0 10.0 0.00 0.00 0.00 54 998.6
20260506135804 56 340 8.0 10.0 0.00 0.00 0.00 54 998.9
20260506135604 56 340 8.0 10.0 0.00 0.00 0.00 55 998.8
20260506135404 56 345 9.0 11.0 0.00 0.00 0.00 54 998.8
20260506135204 56 339 8.0 11.0 0.00 0.00 0.00 53 998.9
20260506134804 57 345 7.0 11.0 0.00 0.00 0.00 53 998.9
20260506134604 57 347 7.0 11.0 0.00 0.00 0.00 54 999.0
20260506134404 57 352 7.0 11.0 0.00 0.00 0.00 56 998.9
20260506134204 57 351 7.0 9.0 0.00 0.00 0.00 57 998.7
20260506133804 57 325 8.0 11.0 0.00 0.00 0.00 57 998.7
20260506133604 57 321 8.0 11.0 0.00 0.00 0.00 59 998.8
20260506133204 56 334 9.0 11.0 0.00 0.00 0.00 57 998.6
20260506132604 56 347 8.0 11.0 0.00 0.00 0.00 56 998.8
20260506132404 57 333 8.0 11.0 0.00 0.00 0.00 57 998.9
20260506132204 57 332 8.0 11.0 0.00 0.00 0.00 57 998.8
20260506132005 56 332 8.0 11.0 0.00 0.00 0.00 57 998.7
20260506131804 56 340 8.0 11.0 0.00 0.00 0.00 58 998.8
20260506131603 56 335 8.0 11.0 0.00 0.00 0.00 59 998.8
20260506131404 56 341 8.0 11.0 0.00 0.00 0.00 58 998.8
20260506131204 56 333 8.0 11.0 0.00 0.00 0.00 58 998.7
20260506131004 56 325 8.0 11.0 0.00 0.00 0.00 57 998.8
20260506130804 56 306 7.0 11.0 0.00 0.00 0.00 58 998.8
20260506130604 56 297 6.0 10.0 0.00 0.00 0.00 59 998.8
20260506130404 56 305 7.0 10.0 0.00 0.00 0.00 60 998.8
20260506130204 56 320 8.0 11.0 0.00 0.00 0.00 60 998.7
20260506125604 55 337 7.0 11.0 0.00 0.00 0.00 58 998.7
20260506125403 56 340 7.0 11.0 0.00 0.00 0.00 60 998.6
20260506125004 55 349 7.0 14.0 0.00 0.00 0.00 60 998.6
20260506124804 55 347 7.0 14.0 0.00 0.00 0.00 60 998.7
20260506124604 55 343 7.0 14.0 0.00 0.00 0.00 60 998.7
20260506124204 55 327 7.0 14.0 0.00 0.00 0.00 60 998.7
20260506124004 55 313 6.0 9.0 0.00 0.00 0.00 61 998.9
20260506123804 54 330 6.0 8.0 0.00 0.00 0.00 62 998.8
20260506123604 54 342 7.0 9.0 0.00 0.00 0.00 66 998.8
20260506123404 54 331 7.0 10.0 0.00 0.00 0.00 66 998.7
20260506123204 54 338 8.0 10.0 0.00 0.00 0.00 66 998.8
20260506123004 53 339 8.0 10.0 0.00 0.00 0.00 66 998.8
20260506122804 53 338 9.0 10.0 0.00 0.00 0.00 66 998.7
20260506122604 53 345 9.0 13.0 0.00 0.00 0.00 66 998.7
20260506122204 53 345 10.0 13.0 0.00 0.00 0.00 66 998.6
20260506122004 53 349 10.0 13.0 0.00 0.00 0.00 65 998.9
20260506121804 54 348 10.0 13.0 0.00 0.00 0.00 64 998.8
20260506121604 54 335 9.0 13.0 0.00 0.00 0.00 64 998.8
20260506121404 54 341 8.0 11.0 0.00 0.00 0.00 64 998.6
20260506121204 54 342 7.0 11.0 0.00 0.00 0.00 64 998.8
20260506120804 54 342 7.0 10.0 0.00 0.00 0.00 64 998.8
20260506120604 54 353 7.0 11.0 0.00 0.00 0.00 65 998.6
20260506120404 54 346 8.0 11.0 0.00 0.00 0.00 65 998.7
20260506120004 54 336 9.0 11.0 0.00 0.00 0.00 65 998.8
20260506115804 53 340 9.0 11.0 0.00 0.00 0.00 65 998.7
20260506115604 53 340 9.0 12.0 0.00 0.00 0.00 65 998.8
20260506115404 53 343 9.0 12.0 0.00 0.00 0.00 65 998.8
20260506115204 54 347 10.0 12.0 0.00 0.00 0.00 65 998.8
20260506115004 54 352 9.0 12.0 0.00 0.00 0.00 65 999.0
20260506114804 54 350 9.0 12.0 0.00 0.00 0.00 65 998.7
20260506114604 54 355 8.0 12.0 0.00 0.00 0.00 65 998.8
20260506114404 54 352 8.0 10.0 0.00 0.00 0.00 64 998.6
20260506114203 54 347 9.0 11.0 0.00 0.00 0.00 64 998.6
20260506114005 54 342 9.0 11.0 0.00 0.00 0.00 63 998.7
20260506113804 54 342 9.0 11.0 0.00 0.00 0.00 60 998.7
20260506113604 55 339 9.0 11.0 0.00 0.00 0.00 60 998.8
20260506113004 55 347 8.0 11.0 0.00 0.00 0.00 60 998.7
20260506112804 55 353 8.0 11.0 0.00 0.00 0.00 60 998.8
20260506112604 55 356 8.0 11.0 0.00 0.00 0.00 60 998.7
20260506112203 55 1 8.0 11.0 0.00 0.00 0.00 61 998.6
20260506112004 54 353 9.0 12.0 0.00 0.00 0.00 61 998.8
20260506111804 54 345 10.0 15.0 0.00 0.00 0.00 64 998.8
20260506111604 54 335 10.0 15.0 0.00 0.00 0.00 63 998.7
20260506111404 54 330 10.0 15.0 0.00 0.00 0.00 63 998.7
20260506111004 54 323 10.0 15.0 0.00 0.00 0.00 63 998.8
20260506110804 54 322 10.0 15.0 0.00 0.00 0.00 60 998.8
20260506110604 54 327 10.0 12.0 0.00 0.00 0.00 63 998.8
20260506110404 54 334 10.0 14.0 0.00 0.00 0.00 63 998.9
20260506110004 54 334 11.0 14.0 0.00 0.00 0.00 63 998.7
20260506105804 54 339 10.0 14.0 0.00 0.00 0.00 60 998.7
20260506105204 55 351 8.0 11.0 0.00 0.00 0.00 61 998.6
20260506105003 55 356 8.0 11.0 0.00 0.00 0.00 61 998.6
20260506104804 55 355 7.0 10.0 0.00 0.00 0.00 62 998.8
20260506104604 55 342 8.0 11.0 0.00 0.00 0.00 62 998.7
20260506104404 54 344 9.0 11.0 0.00 0.00 0.00 66 998.8
20260506104204 54 342 9.0 13.0 0.00 0.00 0.00 66 998.7
20260506104004 54 339 10.0 13.0 0.00 0.00 0.00 66 998.8
20260506103804 54 342 10.0 13.0 0.00 0.00 0.00 65 998.6
20260506103604 53 348 10.0 13.0 0.00 0.00 0.00 65 998.7
20260506103404 53 351 10.0 13.0 0.00 0.00 0.00 65 998.7
20260506103204 53 355 10.0 13.0 0.00 0.00 0.00 65 998.6
20260506103004 53 355 9.0 12.0 0.00 0.00 0.00 65 998.6
20260506102804 54 351 8.0 11.0 0.00 0.00 0.00 66 998.5
20260506102604 54 343 8.0 10.0 0.00 0.00 0.00 66 998.5
20260506102404 54 333 8.0 10.0 0.00 0.00 0.00 66 998.6
20260506102204 54 329 8.0 12.0 0.00 0.00 0.00 66 998.6
20260506101804 54 333 10.0 12.0 0.00 0.00 0.00 67 998.6
20260506101604 53 333 11.0 12.0 0.00 0.00 0.00 66 998.4
20260506101404 53 331 11.0 12.0 0.00 0.00 0.00 66 998.6
20260506101204 53 329 10.0 12.0 0.00 0.00 0.00 65 998.7
20260506101004 53 325 9.0 12.0 0.00 0.00 0.00 65 998.7
20260506100804 53 325 9.0 11.0 0.00 0.00 0.00 65 998.6
20260506100604 53 330 8.0 10.0 0.00 0.00 0.00 64 998.7
20260506100204 54 331 8.0 11.0 0.00 0.00 0.00 64 998.6
20260506100004 54 336 8.0 11.0 0.00 0.00 0.00 64 998.6
20260506095804 54 338 9.0 11.0 0.00 0.00 0.00 64 998.6
20260506095604 54 334 9.0 11.0 0.00 0.00 0.00 64 998.6
20260506095404 54 337 9.0 11.0 0.00 0.00 0.00 64 998.7
20260506095204 54 340 9.0 11.0 0.00 0.00 0.00 65 998.6
20260506095004 53 341 9.0 11.0 0.00 0.00 0.00 65 998.8
20260506094803 53 343 8.0 11.0 0.00 0.00 0.00 64 998.6
20260506094604 53 348 7.0 11.0 0.00 0.00 0.00 64 998.6
20260506094404 53 346 7.0 11.0 0.00 0.00 0.00 65 998.8
20260506094204 53 340 7.0 11.0 0.00 0.00 0.00 65 998.7
20260506093804 53 343 7.0 10.0 0.00 0.00 0.00 66 998.6
20260506093604 52 340 8.0 10.0 0.00 0.00 0.00 65 998.6
20260506093403 52 339 7.0 10.0 0.00 0.00 0.00 65 998.7
20260506093204 52 341 7.0 10.0 0.00 0.00 0.00 66 998.6
20260506093004 52 340 6.0 8.0 0.00 0.00 0.00 66 998.7
20260506092804 52 333 6.0 8.0 0.00 0.00 0.00 67 998.6
20260506092603 52 331 6.0 8.0 0.00 0.00 0.00 67 998.6
20260506092404 52 334 6.0 8.0 0.00 0.00 0.00 69 998.9
20260506092004 51 331 7.0 11.0 0.00 0.00 0.00 69 998.6
20260506091804 51 330 8.0 12.0 0.00 0.00 0.00 68 998.6
20260506091604 51 329 9.0 12.0 0.00 0.00 0.00 68 998.7
20260506091003 51 333 8.0 12.0 0.00 0.00 0.00 67 998.7
20260506090804 51 337 8.0 11.0 0.00 0.00 0.00 67 998.8
20260506090604 52 345 7.0 11.0 0.00 0.00 0.00 67 998.7
20260506090404 52 352 7.0 11.0 0.00 0.00 0.00 67 998.7
20260506090203 52 348 6.0 8.0 0.00 0.00 0.00 69 998.7
20260506090004 52 340 6.0 8.0 0.00 0.00 0.00 69 998.6
20260506085804 52 343 6.0 8.0 0.00 0.00 0.00 69 998.7
20260506085604 51 334 7.0 9.0 0.00 0.00 0.00 68 998.8
20260506085403 51 331 8.0 11.0 0.00 0.00 0.00 67 998.7
20260506085004 52 340 8.0 11.0 0.00 0.00 0.00 66 998.7
20260506084803 52 337 8.0 11.0 0.00 0.00 0.00 65 998.6
20260506084604 52 343 8.0 11.0 0.00 0.00 0.00 66 998.6
20260506084404 53 350 8.0 11.0 0.00 0.00 0.00 67 998.4
20260506084003 53 340 8.0 11.0 0.00 0.00 0.00 66 998.5
20260506083804 53 347 8.0 11.0 0.00 0.00 0.00 67 998.6
20260506083604 53 349 8.0 11.0 0.00 0.00 0.00 70 998.5
20260506083403 53 339 7.0 11.0 0.00 0.00 0.00 70 998.6
20260506083204 52 348 8.0 13.0 0.00 0.00 0.00 70 998.6
20260506083004 51 351 9.0 13.0 0.00 0.00 0.00 70 998.5
20260506082804 51 343 9.0 13.0 0.00 0.00 0.00 70 998.6
20260506082603 50 341 9.0 13.0 0.00 0.00 0.00 70 998.6
20260506082404 50 344 9.0 13.0 0.00 0.00 0.00 70 998.5
20260506082204 50 336 9.0 13.0 0.00 0.00 0.00 70 998.6
20260506082004 50 335 8.0 12.0 0.00 0.00 0.00 70 998.6
20260506081803 50 341 8.0 12.0 0.00 0.00 0.00 70 998.6
20260506081603 50 335 9.0 12.0 0.00 0.00 0.00 70 998.6
20260506081404 51 334 9.0 12.0 0.00 0.00 0.00 69 998.6
20260506081204 51 335 9.0 11.0 0.00 0.00 0.00 70 998.5
20260506081003 51 333 9.0 11.0 0.00 0.00 0.00 69 998.7
20260506080804 51 329 10.0 12.0 0.00 0.00 0.00 69 998.6
20260506080604 51 337 10.0 12.0 0.00 0.00 0.00 70 998.5
20260506080404 51 335 10.0 12.0 0.00 0.00 0.00 70 998.5
20260506080203 51 335 10.0 12.0 0.00 0.00 0.00 70 998.5
20260506073404 51 345 8.0 11.0 0.00 0.00 0.00 71 998.5
20260506073204 51 339 7.0 11.0 0.00 0.00 0.00 71 998.8
20260506073004 51 343 6.0 9.0 0.00 0.00 0.00 72 998.5
20260506072804 51 330 7.0 11.0 0.00 0.00 0.00 73 998.6
20260506072604 50 312 7.0 11.0 0.00 0.00 0.00 73 998.6
20260506072404 50 321 8.0 11.0 0.00 0.00 0.00 74 998.5
20260506072203 49 324 8.0 11.0 0.00 0.00 0.00 74 998.4
20260506072004 48 325 8.0 11.0 0.00 0.00 0.00 74 998.5
20260506071604 47 347 8.0 12.0 0.00 0.00 0.00 75 998.5
20260506071404 47 343 8.0 12.0 0.00 0.00 0.00 75 998.5
20260506071203 47 343 8.0 12.0 0.00 0.00 0.00 74 998.6
20260506070804 47 341 9.0 12.0 0.00 0.00 0.00 74 998.5
20260506070604 47 344 9.0 12.0 0.00 0.00 0.00 75 998.5
20260506070403 47 340 9.0 12.0 0.00 0.00 0.00 74 998.5
20260506070204 47 342 10.0 13.0 0.00 0.00 0.00 75 998.3
20260506062404 46 342 7.0 11.0 0.00 0.00 0.00 79 998.3
20260506062204 46 343 7.0 11.0 0.00 0.00 0.00 79 998.3
20260506062003 46 353 6.0 8.0 0.00 0.00 0.00 79 998.3
20260506061604 46 339 6.0 8.0 0.00 0.00 0.00 79 998.3
20260506061403 46 349 6.0 8.0 0.00 0.00 0.00 79 998.3
20260506061004 46 352 5.0 8.0 0.00 0.00 0.00 79 998.2
20260506060604 46 355 5.0 7.0 0.00 0.00 0.00 80 998.2
20260506060403 46 348 5.0 7.0 0.00 0.00 0.00 80 998.2
20260506060203 46 352 6.0 10.0 0.00 0.00 0.00 80 998.2